Time,TemperatureF,DewpointF,PressureIn,WindDirection,WindDirectionDegrees,WindSpeedMPH,WindSpeedGustMPH,Humidity,HourlyPrecipIn,Conditions,Clouds,dailyrainin,SoftwareType,DateUTC
2013-03-29 00:00:00,41.9,33.9,30.01,West,274,0.0,0.0,73,0.00,,,0.01,Wunderground v.1.15,2013-03-29 04:00:00,
2013-03-29 00:30:00,41.2,33.9,30.01,ESE,114,0.0,0.0,75,0.00,,,0.00,Wunderground v.1.15,2013-03-29 04:30:00,
2013-03-29 01:00:00,40.0,33.0,30.02,ESE,116,0.0,0.0,76,0.00,,,0.00,Wunderground v.1.15,2013-03-29 05:00:00,
2013-03-29 01:30:00,38.8,32.2,30.01,West,278,0.0,0.0,77,0.00,,,0.00,Wunderground v.1.15,2013-03-29 05:30:00,
2013-03-29 02:00:00,37.6,32.0,30.01,West,277,0.0,0.0,80,0.00,,,0.00,Wunderground v.1.15,2013-03-29 06:00:00,
2013-03-29 02:30:00,37.6,31.7,30.01,West,271,0.0,0.0,79,0.00,,,0.00,Wunderground v.1.15,2013-03-29 06:30:00,
2013-03-29 03:00:00,36.3,31.3,30.01,West,271,0.0,0.0,82,0.00,,,0.00,Wunderground v.1.15,2013-03-29 07:00:00,
2013-03-29 03:30:00,35.6,30.9,30.01,West,271,0.0,0.0,83,0.00,,,0.00,Wunderground v.1.15,2013-03-29 07:30:00,
2013-03-29 04:00:00,35.1,31.0,30.01,West,271,0.0,0.0,85,0.00,,,0.00,Wunderground v.1.15,2013-03-29 08:00:00,
2013-03-29 04:30:00,34.5,30.5,30.01,West,271,0.0,0.0,85,0.00,,,0.00,Wunderground v.1.15,2013-03-29 08:30:00,
2013-03-29 05:00:00,34.4,30.6,30.01,West,271,0.0,0.0,86,0.00,,,0.00,Wunderground v.1.15,2013-03-29 09:00:00,
2013-03-29 05:30:00,34.6,30.6,30.01,West,271,0.0,0.0,85,0.00,,,0.00,Wunderground v.1.15,2013-03-29 09:30:00,
2013-03-29 06:00:00,33.8,30.1,30.01,West,271,0.0,0.0,86,0.00,,,0.00,Wunderground v.1.15,2013-03-29 10:00:00,
2013-03-29 06:30:00,33.4,29.7,30.02,West,271,0.0,0.0,86,0.00,,,0.00,Wunderground v.1.15,2013-03-29 10:30:00,
2013-03-29 07:00:00,33.9,30.4,30.02,West,271,0.0,0.0,87,0.00,,,0.00,Wunderground v.1.15,2013-03-29 11:00:00,
2013-03-29 07:30:00,35.6,32.1,30.03,West,259,0.0,0.0,87,0.00,,,0.00,Wunderground v.1.15,2013-03-29 11:30:00,
2013-03-29 08:00:00,40.1,34.7,30.03,West,266,0.0,0.0,81,0.00,,,0.00,Wunderground v.1.15,2013-03-29 12:00:00,
2013-03-29 08:30:00,45.1,34.8,30.03,SSW,203,2.0,2.0,67,0.00,,,0.00,Wunderground v.1.15,2013-03-29 12:30:00,
2013-03-29 09:00:00,47.7,35.7,30.03,WSW,240,2.0,2.0,63,0.00,,,0.00,Wunderground v.1.15,2013-03-29 13:00:00,
2013-03-29 09:30:00,49.2,36.3,30.03,WSW,242,4.0,4.0,61,0.00,,,0.00,Wunderground v.1.15,2013-03-29 13:30:00,
2013-03-29 10:00:00,50.0,36.2,30.03,West,271,4.0,8.0,59,0.00,,,0.00,Wunderground v.1.15,2013-03-29 14:00:00,
2013-03-29 10:30:00,50.0,35.8,30.03,West,280,2.0,4.0,58,0.00,,,0.00,Wunderground v.1.15,2013-03-29 14:30:00,
2013-03-29 11:00:00,51.4,36.2,30.03,SW,235,3.0,3.0,56,0.00,,,0.00,Wunderground v.1.15,2013-03-29 15:00:00,
2013-03-29 11:30:00,52.3,35.7,30.03,WSW,251,4.0,4.0,53,0.00,,,0.00,Wunderground v.1.15,2013-03-29 15:30:00,
2013-03-29 12:00:00,54.1,35.9,30.02,SW,228,2.0,2.0,50,0.00,,,0.00,Wunderground v.1.15,2013-03-29 16:00:00,
2013-03-29 12:30:00,55.4,35.5,30.02,West,264,2.0,3.0,47,0.00,,,0.00,Wunderground v.1.15,2013-03-29 16:30:00,
2013-03-29 13:00:00,55.3,35.9,30.01,North,6,2.0,2.0,48,0.00,,,0.00,Wunderground v.1.15,2013-03-29 17:00:00,
2013-03-29 13:30:00,57.7,33.5,29.99,WSW,255,4.0,4.0,40,0.00,,,0.00,Wunderground v.1.15,2013-03-29 17:30:00,
2013-03-29 14:00:00,56.8,34.5,29.98,NNE,14,2.0,2.0,43,0.00,,,0.00,Wunderground v.1.15,2013-03-29 18:00:00,
2013-03-29 14:30:00,51.4,37.1,29.97,West,270,1.0,1.0,58,0.05,,,0.02,Wunderground v.1.15,2013-03-29 18:30:00,
2013-03-29 15:00:00,54.4,35.1,29.97,West,268,3.0,3.0,48,0.00,,,0.02,Wunderground v.1.15,2013-03-29 19:00:00,
2013-03-29 15:30:00,56.4,34.2,29.96,SSE,149,3.0,3.0,43,0.00,,,0.02,Wunderground v.1.15,2013-03-29 19:30:00,
2013-03-29 16:00:00,55.0,32.3,29.96,West,276,2.0,2.0,42,0.00,,,0.02,Wunderground v.1.15,2013-03-29 20:00:00,
2013-03-29 16:30:00,55.2,31.3,29.96,WSW,248,2.0,2.0,40,0.00,,,0.02,Wunderground v.1.15,2013-03-29 20:30:00,
2013-03-29 17:00:00,55.0,30.5,29.96,West,273,3.0,3.0,39,0.00,,,0.02,Wunderground v.1.15,2013-03-29 21:00:00,
2013-03-29 17:30:00,53.2,35.0,29.97,WSW,257,2.0,2.0,50,0.00,,,0.02,Wunderground v.1.15,2013-03-29 21:30:00,
2013-03-29 18:00:00,52.6,35.5,29.98,West,276,1.0,1.0,52,0.00,,,0.02,Wunderground v.1.15,2013-03-29 22:00:00,
2013-03-29 18:30:00,51.9,35.8,29.99,West,275,0.0,0.0,54,0.00,,,0.02,Wunderground v.1.15,2013-03-29 22:30:00,
2013-03-29 19:00:00,51.3,34.3,29.99,WSW,245,2.0,2.0,52,0.00,,,0.02,Wunderground v.1.15,2013-03-29 23:00:00,
2013-03-29 19:30:00,50.2,33.7,29.99,WSW,256,0.0,0.0,53,0.00,,,0.02,Wunderground v.1.15,2013-03-29 23:30:00,
2013-03-29 20:00:00,49.1,34.1,30.00,WSW,257,0.0,0.0,56,0.00,,,0.02,Wunderground v.1.15,2013-03-30 00:00:00,
2013-03-29 20:30:00,49.3,34.3,30.01,WSW,252,1.0,4.0,56,0.00,,,0.02,Wunderground v.1.15,2013-03-30 00:30:00,
2013-03-29 21:00:00,48.3,34.2,30.02,WSW,240,1.0,3.0,58,0.00,,,0.02,Wunderground v.1.15,2013-03-30 01:00:00,
2013-03-29 21:30:00,47.1,33.9,30.03,West,259,1.0,1.0,60,0.00,,,0.02,Wunderground v.1.15,2013-03-30 01:30:00,
2013-03-29 22:00:00,46.5,34.2,30.03,WSW,257,1.0,2.0,62,0.00,,,0.02,Wunderground v.1.15,2013-03-30 02:00:00,
2013-03-29 22:30:00,46.2,33.9,30.03,South,188,2.0,2.0,62,0.00,,,0.02,Wunderground v.1.15,2013-03-30 02:30:00,
2013-03-29 23:00:00,45.4,33.9,30.03,WSW,255,1.0,3.0,64,0.00,,,0.02,Wunderground v.1.15,2013-03-30 03:00:00,
2013-03-29 23:30:00,45.4,33.9,30.03,WSW,254,2.0,2.0,64,0.00,,,0.02,Wunderground v.1.15,2013-03-30 03:30:00,